Date String (YYYY-MM-DD hh:mm:ss) UTC,Instrument flags,absolute air pressure of the measurement (hPa),sample flow rate (lpm),inlet stack bypass flow (lpm),air temperature of the measurement (°C),ambient temperature measured by the external sensor (°C),aerosol sample conditioner tube jacket temperature (°C),OPC LED temperature (°C),internal box temperature (°C),relative humidity of the measurement (%),span deviation,mass concentration of particles derived from Lorenz-Mie calculation of OPC scattering (μg/m³),mass concentration of particles derived from Lorenz-Mie calculation of OPC scattering (μg/m³),mass concentration of particles derived from Lorenz-Mie calculation of OPC scattering (μg/m³)
DateTimeUTC,F1_M11,P_M11,Q1_M11,Q2_M11,T1_M11,T2_M11,T3_M11,T4_M11,T5_M11,U1_M11,ZSPAN_M11,X0_M11,X2_M11,X1_M11
2023-08-15 12:00:00,SystemResetWarning,0837.9,5.01,000.00,029.7,028.2,000.0,038.3,031.2,21.5,0001.7,0013.91,0006.10,0005.23
2023-08-15 12:01:00,SystemResetWarning,0837.9,5.00,000.00,029.7,028.2,000.0,038.3,031.2,21.4,0001.7,0013.99,0006.13,0005.24
2023-08-15 12:02:00,SystemResetWarning,0837.9,4.99,000.00,029.7,028.3,000.0,038.4,031.3,21.1,0001.6,0014.32,0006.14,0005.25
2023-08-15 12:03:00,SystemResetWarning,0837.9,4.99,000.00,029.7,028.3,000.0,038.4,031.3,21.4,0001.4,0014.56,0006.13,0005.26
2023-08-15 12:04:00,SystemResetWarning,0838.0,5.00,000.00,029.7,028.3,000.0,038.4,031.3,21.3,0001.7,0015.37,0006.16,0005.28
2023-08-15 12:05:00,SystemResetWarning,0838.0,5.00,000.00,029.8,028.4,000.0,038.4,031.3,21.0,0001.7,0014.94,0006.17,0005.28
2023-08-15 12:06:00,SystemResetWarning,0838.0,5.01,000.00,029.8,028.4,000.0,038.4,031.3,20.7,0001.9,0014.76,0006.15,0005.28
2023-08-15 12:07:00,SystemResetWarning,0838.0,5.01,000.00,029.8,028.4,000.0,038.4,031.3,21.0,0002.1,0014.66,0006.16,0005.28
2023-08-15 12:08:00,SystemResetWarning,0838.0,5.00,000.00,029.8,028.4,000.0,038.4,031.3,21.0,0002.3,0014.84,0006.15,0005.29
2023-08-15 12:09:00,SystemResetWarning,0838.0,5.00,000.00,029.8,028.4,000.0,038.4,031.3,21.2,0002.1,0014.54,0006.14,0005.30
2023-08-15 12:10:00,SystemResetWarning,0838.0,4.99,000.00,029.8,028.4,000.0,038.4,031.4,21.3,0002.1,0014.51,0006.17,0005.31
2023-08-15 12:11:00,SystemResetWarning,0838.0,5.00,000.00,029.8,028.5,000.0,038.4,031.4,21.3,0001.9,0014.12,0006.18,0005.29
2023-08-15 12:12:00,SystemResetWarning,0838.0,5.00,000.00,029.8,028.5,000.0,038.4,031.4,21.3,0002.4,0014.09,0006.18,0005.30
2023-08-15 12:13:00,SystemResetWarning,0837.9,5.00,000.00,029.8,028.5,000.0,038.4,031.4,21.3,0002.6,0013.43,0006.15,0005.30
2023-08-15 12:14:00,SystemResetWarning,0837.9,5.00,000.00,029.8,028.5,000.0,038.4,031.4,21.3,0002.7,0013.10,0006.13,0005.31
2023-08-15 12:15:00,SystemResetWarning,0837.9,5.00,000.00,029.8,028.5,000.0,038.4,031.4,21.2,0002.8,0012.53,0006.12,0005.31
2023-08-15 12:16:00,SystemResetWarning,0837.8,5.00,000.00,029.9,028.5,000.0,038.4,031.4,21.2,0002.9,0012.58,0006.11,0005.32
2023-08-15 12:17:00,SystemResetWarning,0837.8,5.00,000.00,029.9,028.5,000.0,038.5,031.4,21.1,0002.9,0012.46,0006.13,0005.33
2023-08-15 12:18:00,SystemResetWarning,0837.8,5.00,000.00,029.9,028.5,000.0,038.5,031.4,21.1,0002.7,0012.11,0006.13,0005.34
2023-08-15 12:19:00,SystemResetWarning,0837.9,5.00,000.00,029.9,028.6,000.0,038.5,031.4,21.0,0003.0,0012.24,0006.18,0005.35
2023-08-15 12:20:00,SystemResetWarning,0837.9,5.00,000.00,029.9,028.6,000.0,038.5,031.4,20.8,0003.0,0013.14,0006.24,0005.35
2023-08-15 12:21:00,SystemResetWarning,0837.9,5.00,000.00,029.9,028.6,000.0,038.5,031.4,20.2,0003.0,0013.86,0006.26,0005.38
2023-08-15 12:22:00,SystemResetWarning,0837.9,5.00,000.00,029.9,028.6,000.0,038.5,031.4,20.6,0003.1,0013.74,0006.24,0005.39
2023-08-15 12:23:00,SystemResetWarning,0837.8,5.00,000.00,029.9,028.6,000.0,038.5,031.5,20.8,0002.7,0013.98,0006.26,0005.40
2023-08-15 12:24:00,SystemResetWarning,0837.9,5.00,000.00,029.9,028.6,000.0,038.5,031.5,20.8,0002.1,0014.53,0006.32,0005.41
2023-08-15 12:25:00,SystemResetWarning,0837.9,5.00,000.00,029.9,028.6,000.0,038.5,031.5,20.7,0001.7,0014.97,0006.37,0005.41
2023-08-15 12:26:00,SystemResetWarning,0838.0,5.00,000.00,029.9,028.6,000.0,038.5,031.5,20.3,0002.1,0015.20,0006.42,0005.43
2023-08-15 12:27:00,SystemResetWarning,0838.0,5.00,000.00,029.9,028.6,000.0,038.5,031.5,20.2,0001.8,0015.24,0006.44,0005.44
2023-08-15 12:28:00,SystemResetWarning,0838.0,5.00,000.00,030.0,028.6,000.0,038.6,031.5,20.2,0001.2,0015.86,0006.42,0005.46
2023-08-15 12:29:00,SystemResetWarning,0837.9,4.99,000.00,030.0,028.6,000.0,038.6,031.5,20.8,0001.2,0016.19,0006.43,0005.45
2023-08-15 12:30:00,SystemResetWarning,0838.0,4.99,000.00,030.0,028.6,000.0,038.6,031.5,20.8,0000.7,0016.05,0006.43,0005.46
2023-08-15 12:31:00,SystemResetWarning,0838.0,5.00,000.00,030.0,028.6,000.0,038.6,031.5,20.5,0000.2,0015.69,0006.45,0005.46
2023-08-15 12:32:00,SystemResetWarning,0838.0,5.00,000.00,030.0,028.6,000.0,038.6,031.5,20.7,0000.4,0015.17,0006.44,0005.44
2023-08-15 12:33:00,SystemResetWarning,0838.0,5.00,000.00,030.0,028.7,000.0,038.6,031.5,20.8,0000.4,0014.97,0006.45,0005.43
2023-08-15 12:34:00,SystemResetWarning,0838.0,5.00,000.00,030.0,028.7,000.0,038.6,031.5,20.8,0000.5,0014.88,0006.40,0005.42
2023-08-15 12:35:00,SystemResetWarning,0838.1,5.01,000.00,030.0,028.7,000.0,038.6,031.6,20.8,0000.9,0015.21,0006.39,0005.42
2023-08-15 12:36:00,SystemResetWarning,0838.2,5.00,000.00,030.0,028.7,000.0,038.6,031.6,20.8,0000.3,0015.07,0006.37,0005.42
2023-08-15 12:37:00,SystemResetWarning,0838.2,5.00,000.00,030.0,028.7,000.0,038.6,031.6,20.8,0001.1,0015.05,0006.37,0005.41
2023-08-15 12:38:00,SystemResetWarning,0838.2,4.99,000.00,030.0,028.7,000.0,038.6,031.6,20.7,0000.4,0015.52,0006.39,0005.41
2023-08-15 12:39:00,SystemResetWarning,0838.2,4.99,000.00,030.1,028.8,000.0,038.7,031.6,20.7,0000.2,0015.24,0006.47,0005.40
2023-08-15 12:40:00,SystemResetWarning,0838.2,4.99,000.00,030.1,028.8,000.0,038.7,031.6,20.6,0000.2,0015.17,0006.50,0005.41
2023-08-15 12:41:00,SystemResetWarning,0838.2,5.00,000.00,030.1,028.8,000.0,038.7,031.6,20.6,0002.0,0015.28,0006.50,0005.41
2023-08-15 12:42:00,SystemResetWarning,0838.2,5.00,000.00,030.1,028.8,000.0,038.7,031.6,20.4,0002.6,0014.99,0006.53,0005.41
2023-08-15 12:43:00,SystemResetWarning,0838.1,5.00,000.00,030.1,028.8,000.0,038.7,031.7,20.4,0002.4,0014.86,0006.51,0005.42
2023-08-15 12:44:00,SystemResetWarning,0838.2,5.00,000.00,030.1,028.8,000.0,038.7,031.7,20.3,0002.2,0015.01,0006.54,0005.43
2023-08-15 12:45:00,SystemResetWarning,0838.2,5.00,000.00,030.1,028.8,000.0,038.7,031.7,20.0,0002.0,0014.61,0006.58,0005.43
2023-08-15 12:46:00,SystemResetWarning,0838.2,5.00,000.00,030.1,028.8,000.0,038.7,031.7,20.0,0002.2,0014.10,0006.55,0005.41
2023-08-15 12:47:00,SystemResetWarning,0838.2,5.00,000.00,030.1,028.8,000.0,038.7,031.7,20.1,0002.0,0014.14,0006.46,0005.36
2023-08-15 12:48:00,SystemResetWarning,0838.1,5.00,000.00,030.1,028.8,000.0,038.7,031.7,20.0,0001.7,0013.41,0006.35,0005.32
2023-08-15 12:49:00,SystemResetWarning,0838.2,5.00,000.00,030.2,028.8,000.0,038.8,031.7,20.0,0001.7,0013.20,0006.35,0005.30
2023-08-15 12:50:00,SystemResetWarning,0838.1,4.99,000.00,030.2,028.9,000.0,038.8,031.7,20.0,0001.5,0013.48,0006.31,0005.30
2023-08-15 12:51:00,SystemResetWarning,0838.1,4.99,000.00,030.2,028.9,000.0,038.8,031.7,20.0,0001.1,0013.79,0006.28,0005.28
2023-08-15 12:52:00,SystemResetWarning,0838.1,4.99,000.00,030.2,028.9,000.0,038.8,031.7,20.0,0001.0,0013.69,0006.20,0005.24
2023-08-15 12:53:00,SystemResetWarning,0838.2,5.00,000.00,030.2,028.9,000.0,038.8,031.7,20.0,0000.2,0013.29,0006.06,0005.18
2023-08-15 12:54:00,SystemResetWarning,0838.2,5.00,000.00,030.2,028.9,000.0,038.8,031.8,20.0,-000.1,0013.15,0005.99,0005.13
2023-08-15 12:55:00,SystemResetWarning,0838.2,5.00,000.00,030.2,028.9,000.0,038.8,031.7,19.9,-000.0,0013.04,0005.91,0005.07
2023-08-15 12:56:00,SystemResetWarning,0838.2,5.00,000.00,030.2,028.8,000.0,038.8,031.7,19.9,0000.5,0013.64,0005.82,0005.04
2023-08-15 12:57:00,SystemResetWarning,0838.2,4.99,000.00,030.2,027.1,000.0,038.7,031.5,19.9,-000.4,0013.45,0005.75,0005.00
2023-08-15 12:58:00,SystemResetWarning,0838.2,5.01,000.00,030.1,025.2,000.0,038.5,031.1,20.0,-000.4,0013.16,0005.78,0005.01
2023-08-15 12:59:00,SystemResetWarning,0838.2,5.02,000.00,030.0,024.9,000.0,038.4,030.9,20.1,0000.3,0012.90,0005.80,0004.99
